When you browse on this site, cookies collect data to enhance your experience and personalize the content and advertising you see.
Visit our Privacy Policy to learn more. By continuing to use the site, you agree to this use of cookies and data.
  • In Deutschland
  • Länderverzeichnis
  • Für 7 Tage
  • Wassertemperatur
  • Wetterkarte
  • Widgets
  • user-avatar
    Anmelden

    Stündliche Wetter Varnetresk

    Heute, 29 März, Sonntag

    Zeit Temperatur Niederschläge Wind Luftdruck Luftfeuchtigkeit
    00:00 -15°C° 0.2 mm 4 m/S 691 mmHg 93%
    01:00 -15°C° 0 mm 3 m/S 691 mmHg 95%
    02:00 -15°C° 0.2 mm 3 m/S 690 mmHg 96%
    03:00 -15°C° 0.2 mm 3 m/S 690 mmHg 96%
    04:00 -14°C° 0.2 mm 2 m/S 690 mmHg 96%
    05:00 -14°C° 0.2 mm 2 m/S 690 mmHg 96%
    06:00 -13°C° 0.2 mm 2 m/S 690 mmHg 96%
    07:00 -13°C° 0 mm 2 m/S 690 mmHg 96%
    08:00 -12°C° 0.2 mm 2 m/S 689 mmHg 94%
    09:00 -10°C° 0.2 mm 2 m/S 689 mmHg 92%
    10:00 -9°C° 0.2 mm 2 m/S 688 mmHg 91%
    11:00 -9°C° 0.2 mm 2 m/S 688 mmHg 87%
    12:00 -8°C° 0.2 mm 2 m/S 688 mmHg 83%
    13:00 -9°C° 0.2 mm 3 m/S 688 mmHg 79%
    14:00 -9°C° 0.1 mm 3 m/S 688 mmHg 81%
    15:00 -10°C° 0.1 mm 3 m/S 688 mmHg 82%
    16:00 -10°C° 0.1 mm 3 m/S 688 mmHg 84%
    17:00 -13°C° 0 mm 3 m/S 688 mmHg 86%
    18:00 -13°C° 0 mm 2 m/S 688 mmHg 88%
    19:00 -15°C° 0 mm 2 m/S 688 mmHg 90%
    20:00 -15°C° 0 mm 2 m/S 689 mmHg 92%
    21:00 -15°C° 0 mm 2 m/S 689 mmHg 94%
    22:00 -13°C° 0 mm 1 m/S 689 mmHg 96%
    23:00 -14°C° 0 mm 1 m/S 690 mmHg 96%

    Morgen, 30 März, Montag

    Zeit Temperatur Niederschläge Wind Luftdruck Luftfeuchtigkeit
    00:00 -14°C° 0 mm 1 m/S 690 mmHg 97%
    01:00 -15°C° 0 mm 1 m/S 690 mmHg 98%
    02:00 -15°C° 0 mm 1 m/S 690 mmHg 98%
    03:00 -15°C° 0 mm 1 m/S 690 mmHg 98%
    04:00 -15°C° 0 mm 1 m/S 690 mmHg 98%
    05:00 -15°C° 0 mm 1 m/S 691 mmHg 98%
    06:00 -14°C° 0 mm 1 m/S 691 mmHg 97%
    07:00 -14°C° 0 mm 1 m/S 691 mmHg 97%
    08:00 -12°C° 0 mm 1 m/S 692 mmHg 95%
    09:00 -11°C° 0 mm 1 m/S 692 mmHg 93%
    10:00 -9°C° 0 mm 1 m/S 692 mmHg 91%
    11:00 -10°C° 0 mm 2 m/S 692 mmHg 88%
    12:00 -9°C° 0 mm 2 m/S 692 mmHg 85%
    13:00 -9°C° 0 mm 2 m/S 692 mmHg 82%
    14:00 -9°C° 0 mm 2 m/S 692 mmHg 83%
    15:00 -9°C° 0 mm 2 m/S 691 mmHg 84%
    16:00 -9°C° 0 mm 2 m/S 691 mmHg 85%
    17:00 -9°C° 0 mm 2 m/S 690 mmHg 87%
    18:00 -10°C° 0 mm 2 m/S 689 mmHg 89%
    19:00 -12°C° 0 mm 2 m/S 688 mmHg 91%
    20:00 -12°C° 0.2 mm 2 m/S 687 mmHg 92%
    21:00 -13°C° 0.2 mm 3 m/S 686 mmHg 93%
    22:00 -13°C° 0.2 mm 3 m/S 685 mmHg 95%
    23:00 -12°C° 1.1 mm 3 m/S 685 mmHg 95%

    übermorgen, 31 März, Dienstag

    Zeit Temperatur Niederschläge Wind Luftdruck Luftfeuchtigkeit
    00:00 -12°C° 1.1 mm 3 m/S 684 mmHg 95%
    01:00 -10°C° 1.1 mm 3 m/S 683 mmHg 95%
    02:00 -10°C° 1.5 mm 4 m/S 682 mmHg 96%
    03:00 -8°C° 1.5 mm 5 m/S 681 mmHg 96%
    04:00 -8°C° 1.5 mm 6 m/S 680 mmHg 97%
    05:00 -7°C° 2.2 mm 8 m/S 679 mmHg 97%
    06:00 -8°C° 2.2 mm 10 m/S 678 mmHg 97%
    07:00 -7°C° 2.2 mm 11 m/S 677 mmHg 97%
    08:00 -7°C° 3.7 mm 11 m/S 676 mmHg 98%
    09:00 -7°C° 3.7 mm 11 m/S 675 mmHg 98%
    10:00 -7°C° 3.7 mm 11 m/S 674 mmHg 98%
    11:00 -7°C° 1.6 mm 11 m/S 673 mmHg 96%
    12:00 -7°C° 1.6 mm 11 m/S 673 mmHg 95%
    13:00 -8°C° 1.6 mm 11 m/S 673 mmHg 93%
    14:00 -8°C° 0.7 mm 11 m/S 672 mmHg 94%
    15:00 -10°C° 0.7 mm 12 m/S 672 mmHg 94%
    16:00 -10°C° 0.7 mm 12 m/S 671 mmHg 95%
    17:00 -10°C° 1.9 mm 13 m/S 670 mmHg 95%
    18:00 -10°C° 1.9 mm 13 m/S 669 mmHg 96%
    19:00 -9°C° 1.9 mm 13 m/S 669 mmHg 96%
    20:00 -10°C° 2 mm 13 m/S 669 mmHg 96%
    21:00 -10°C° 2 mm 13 m/S 668 mmHg 96%
    22:00 -10°C° 2 mm 13 m/S 668 mmHg 96%
    23:00 -10°C° 1.8 mm 12 m/S 669 mmHg 96%

    1 April, Mittwoch

    Zeit Temperatur Niederschläge Wind Luftdruck Luftfeuchtigkeit
    00:00 -10°C° 1.8 mm 12 m/S 669 mmHg 95%
    01:00 -11°C° 1.8 mm 12 m/S 670 mmHg 95%
    02:00 -11°C° 0.8 mm 11 m/S 670 mmHg 95%
    03:00 -11°C° 0.8 mm 11 m/S 671 mmHg 95%
    04:00 -10°C° 0.8 mm 10 m/S 671 mmHg 95%
    05:00 -11°C° 0.6 mm 9 m/S 672 mmHg 94%
    06:00 -11°C° 0.6 mm 8 m/S 672 mmHg 94%
    07:00 -11°C° 0.6 mm 7 m/S 672 mmHg 94%
    08:00 -11°C° 0.3 mm 7 m/S 672 mmHg 92%
    09:00 -9°C° 0.3 mm 7 m/S 672 mmHg 90%
    10:00 -9°C° 0.3 mm 7 m/S 672 mmHg 89%
    11:00 -9°C° 0.1 mm 6 m/S 673 mmHg 87%
    12:00 -9°C° 0.1 mm 6 m/S 673 mmHg 84%
    13:00 -8°C° 0.1 mm 6 m/S 673 mmHg 82%
    14:00 -8°C° 0.1 mm 5 m/S 673 mmHg 83%
    15:00 -8°C° 0.1 mm 4 m/S 672 mmHg 85%
    16:00 -8°C° 0.1 mm 4 m/S 672 mmHg 86%
    17:00 -9°C° 0 mm 3 m/S 672 mmHg 88%
    18:00 -10°C° 0 mm 2 m/S 671 mmHg 90%
    19:00 -13°C° 0 mm 2 m/S 671 mmHg 92%
    20:00 -13°C° 0 mm 2 m/S 671 mmHg 94%
    21:00 -11°C° 0 mm 1 m/S 671 mmHg 96%
    22:00 -12°C° 0 mm 1 m/S 671 mmHg 97%
    23:00 -12°C° 0 mm 1 m/S 671 mmHg 97%

    2 April, Donnerstag

    Zeit Temperatur Niederschläge Wind Luftdruck Luftfeuchtigkeit
    00:00 -12°C° 0 mm 1 m/S 671 mmHg 97%
    01:00 -12°C° 0 mm 1 m/S 671 mmHg 98%
    02:00 -12°C° 0 mm 1 m/S 670 mmHg 98%
    03:00 -12°C° 0 mm 1 m/S 670 mmHg 98%
    04:00 -13°C° 0 mm 1 m/S 670 mmHg 98%
    05:00 -13°C° 0 mm 1 m/S 670 mmHg 98%
    06:00 -13°C° 0 mm 1 m/S 669 mmHg 97%
    07:00 -13°C° 0 mm 1 m/S 669 mmHg 97%
    08:00 -12°C° 0 mm 1 m/S 669 mmHg 95%
    09:00 -10°C° 0 mm 1 m/S 669 mmHg 93%
    10:00 -10°C° 0 mm 2 m/S 669 mmHg 91%
    11:00 -10°C° 0 mm 2 m/S 669 mmHg 89%
    12:00 -9°C° 0 mm 2 m/S 668 mmHg 87%
    13:00 -9°C° 0 mm 2 m/S 668 mmHg 86%
    14:00 -9°C° 0 mm 2 m/S 667 mmHg 86%
    15:00 -9°C° 0 mm 2 m/S 666 mmHg 86%
    16:00 -10°C° 0 mm 3 m/S 666 mmHg 87%
    17:00 -10°C° 0 mm 2 m/S 665 mmHg 88%
    18:00 -12°C° 0 mm 2 m/S 664 mmHg 89%
    19:00 -13°C° 0 mm 2 m/S 664 mmHg 90%
    20:00 -13°C° 0 mm 2 m/S 663 mmHg 90%
    21:00 -14°C° 0 mm 3 m/S 663 mmHg 90%
    22:00 -15°C° 0 mm 3 m/S 663 mmHg 91%
    23:00 -14°C° 0 mm 2 m/S 663 mmHg 91%

    3 April, Freitag

    Zeit Temperatur Niederschläge Wind Luftdruck Luftfeuchtigkeit
    00:00 -14°C° 0 mm 2 m/S 662 mmHg 91%
    01:00 -15°C° 0 mm 2 m/S 662 mmHg 91%
    02:00 -15°C° 0 mm 2 m/S 662 mmHg 91%
    03:00 -15°C° 0 mm 2 m/S 662 mmHg 91%
    04:00 -14°C° 0 mm 1 m/S 662 mmHg 91%
    05:00 -14°C° 0 mm 1 m/S 663 mmHg 90%
    06:00 -13°C° 0 mm 1 m/S 663 mmHg 90%
    07:00 -13°C° 0 mm 1 m/S 663 mmHg 89%
    08:00 -12°C° 0 mm 1 m/S 664 mmHg 86%
    09:00 -11°C° 0 mm 0 m/S 664 mmHg 84%
    10:00 -10°C° 0 mm 0 m/S 664 mmHg 81%
    11:00 -10°C° 0 mm 1 m/S 665 mmHg 80%
    12:00 -9°C° 0 mm 1 m/S 665 mmHg 79%
    13:00 -8°C° 0 mm 1 m/S 666 mmHg 78%
    14:00 -9°C° 0 mm 2 m/S 666 mmHg 80%
    15:00 -9°C° 0 mm 2 m/S 666 mmHg 83%
    16:00 -9°C° 0 mm 2 m/S 666 mmHg 85%
    17:00 -12°C° 0 mm 2 m/S 666 mmHg 88%
    18:00 -14°C° 0 mm 2 m/S 666 mmHg 90%
    19:00 -14°C° 0 mm 1 m/S 666 mmHg 92%
    20:00 -14°C° 0 mm 1 m/S 667 mmHg 93%
    21:00 -15°C° 0 mm 1 m/S 667 mmHg 94%
    22:00 -16°C° 0 mm 1 m/S 667 mmHg 95%
    23:00 -16°C° 0 mm 1 m/S 668 mmHg 94%
    Mehr zeigen